User: anonymous   Login
Location: ??????
(30.5519°N, 47.7720°E)
Time: 11:07:32
(UTC+00:00)
Language:

BREEZE-M DEB (TANK) - Orbit

View from above orbital plane
View from above orbital plane
View from above satellite
View from above satellite

Ground track
Ground track

The orbit data is extracted from the following two-line orbital elements,

1 29271U 06032C   21100.36617311  .00001718  00000-0  38820-3 0  9995
2 29271  49.5287 333.3344 5302736  92.7041 326.1056  5.11220980267196
Epoch (UTC): 10 April 2021 08:47:17
Eccentricity: 0.5302736
inclination: 49.5287°
perigee height: 308 km
apogee height: 15404 km
right ascension of ascending node: 333.3344°
argument of perigee: 92.7041°
revolutions per day: 5.11220980
mean anomaly at epoch: 326.1056°
orbit number at epoch: 26719

The dashed part of the orbit path shows where the satellite is in the earth's shadow,  

DLR